DW5450 Weather Reports


Display with metric or nautical units.
time (UTC)temp
F
wind
direction
speed
MPH
gust
MPH
rain 1hr
in
rain 24hr
in
rain mn
in
humidity
%
barometer
mb
20260505153052 78 348 0.0 2.0 0.00 0.00 0.00 74 1012.9
20260505151548 76 348 0.0 3.0 0.00 0.00 0.00 72 1012.9
20260505124526 64 299 0.0 3.0 0.00 0.00 0.00 86 1012.1
20260505123031 64 299 1.0 4.0 0.00 0.00 0.00 86 1011.9
20260505121522 64 299 0.0 3.0 0.00 0.00 0.00 87 1011.7
20260505120024 64 299 0.0 2.0 0.00 0.00 0.00 87 1011.6
20260505114521 64 299 0.0 4.0 0.00 0.00 0.00 87 1011.4
20260505113022 64 299 0.0 4.0 0.00 0.00 0.00 87 1011.5
20260505111522 65 299 0.0 4.0 0.00 0.00 0.00 87 1011.6
20260505101530 64 272 0.0 2.0 0.00 0.00 0.00 88 1011.2
20260505100038 64 272 0.0 1.0 0.00 0.00 0.00 88 1011.2
20260505094516 65 272 0.0 3.0 0.00 0.00 0.00 88 1011.0
20260505093021 64 165 0.0 2.0 0.00 0.00 0.00 88 1011.2
20260505091518 64 165 0.0 2.0 0.00 0.00 0.00 88 1011.2
20260505090013 64 165 0.0 1.0 0.00 0.00 0.00 87 1011.3
20260505084511 65 165 0.0 0.0 0.00 0.00 0.00 87 1011.4
20260505083009 65 165 0.0 2.0 0.00 0.00 0.00 87 1011.3
20260505081510 66 165 0.0 0.0 0.00 0.00 0.00 87 1011.5
20260505080005 66 165 0.0 0.0 0.00 0.00 0.00 87 1011.7
20260505074503 66 165 0.0 1.0 0.00 0.00 0.00 87 1011.6
20260505073007 66 165 0.0 1.0 0.00 0.00 0.00 87 1011.6
20260505071600 67 165 0.0 0.0 0.00 0.00 0.00 86 1011.5
20260505070100 67 165 0.0 1.0 0.00 0.00 0.00 86 1011.4
20260505064557 68 165 0.0 0.0 0.00 0.00 0.00 86 1011.5
20260505063112 68 165 0.0 0.0 0.00 0.00 0.00 86 1011.4
20260505061555 68 165 0.0 0.0 0.00 0.00 0.00 86 1011.5
20260505060055 69 165 0.0 0.0 0.00 0.00 0.00 85 1011.6
20260505054554 69 165 0.0 0.0 0.00 0.00 0.00 85 1011.6
20260505053054 70 165 0.0 0.0 0.00 0.00 0.00 85 1011.7
20260505051554 70 165 0.0 0.0 0.00 0.00 0.00 85 1011.8
20260505041551 72 165 0.0 0.0 0.00 0.00 0.00 83 1011.5
20260505040051 72 165 0.0 0.0 0.00 0.00 0.00 83 1011.6
20260505034552 73 165 0.0 1.0 0.00 0.00 0.00 82 1011.5
20260505033052 73 165 0.0 0.0 0.00 0.00 0.00 82 1011.4
20260505031552 74 165 0.0 0.0 0.00 0.00 0.00 81 1011.3
20260505030049 74 165 0.0 0.0 0.00 0.00 0.00 81 1011.2
20260505024552 74 165 0.0 0.0 0.00 0.00 0.00 81 1011.1
20260505023051 74 165 0.0 1.0 0.00 0.00 0.00 80 1011.0
20260505021547 75 159 0.0 2.0 0.00 0.00 0.00 80 1010.8
20260505020049 75 167 0.0 4.0 0.00 0.00 0.00 79 1010.7
20260505014552 76 128 1.0 4.0 0.00 0.00 0.00 78 1010.6
20260505013044 76 147 0.0 4.0 0.00 0.00 0.00 77 1010.5
20260505011546 77 168 1.0 7.0 0.00 0.00 0.00 76 1010.4
20260505010103 77 170 1.0 5.0 0.00 0.00 0.00 75 1010.4
20260505004543 77 142 1.0 6.0 0.00 0.00 0.00 75 1010.4
20260505003045 78 159 3.0 6.0 0.00 0.00 0.00 74 1010.4
20260505001540 78 169 4.0 8.0 0.00 0.00 0.00 73 1010.5
20260505000045 78 167 5.0 8.0 0.00 0.00 0.00 72 1010.6
20260504234539 79 121 4.0 10.0 0.00 0.00 0.00 71 1010.7
20260504233039 80 160 4.0 10.0 0.00 0.00 0.00 70 1010.7
20260504231543 80 120 3.0 9.0 0.00 0.00 0.00 69 1010.8
20260504230042 81 178 3.0 14.0 0.00 0.00 0.00 69 1010.9
20260504224536 80 173 5.0 9.0 0.00 0.00 0.00 68 1010.9
20260504223035 81 144 4.0 9.0 0.00 0.00 0.00 68 1011.0
20260504221548 81 155 4.0 9.0 0.00 0.00 0.00 67 1011.2
20260504220035 82 204 3.0 9.0 0.00 0.00 0.00 67 1011.3
20260504214534 81 184 1.0 8.0 0.00 0.00 0.00 67 1011.5
20260504213046 81 144 2.0 10.0 0.00 0.00 0.00 68 1011.7
20260504211536 81 163 2.0 11.0 0.00 0.00 0.00 67 1011.9
20260504210032 82 132 5.0 11.0 0.00 0.00 0.00 66 1012.2
20260504204531 81 125 5.0 11.0 0.00 0.00 0.00 66 1012.6
20260504203043 82 146 3.0 13.0 0.00 0.00 0.00 67 1012.6
20260504201530 81 168 6.0 13.0 0.00 0.00 0.00 68 1012.8
20260504200029 81 128 5.0 11.0 0.00 0.00 0.00 68 1012.8
20260504194538 81 134 5.0 14.0 0.00 0.00 0.00 68 1012.8
20260504193028 81 173 4.0 15.0 0.00 0.00 0.00 68 1012.8
20260504191536 82 108 5.0 11.0 0.00 0.00 0.00 66 1012.8
20260504190027 82 120 4.0 11.0 0.00 0.00 0.00 66 1012.9
20260504184527 82 183 5.0 10.0 0.00 0.00 0.00 64 1012.8
20260504183025 82 148 3.0 10.0 0.00 0.00 0.00 65 1012.9
20260504181525 82 100 5.0 11.0 0.00 0.00 0.00 64 1013.2
20260504180024 82 165 3.0 10.0 0.00 0.00 0.00 67 1013.1
20260504174523 81 165 3.0 9.0 0.00 0.00 0.00 69 1013.2
20260504173022 81 164 3.0 10.0 0.00 0.00 0.00 70 1013.3
20260504171529 81 113 4.0 10.0 0.00 0.00 0.00 68 1013.5